This is the latest recevied weather packets stored in our database for station/object KM4KMS. If no packets are shown the sender has not sent any weather packets the latest 10 day(s).
| Time | Temp. | Humidity | Pressure | Rain* | Wind** | Luminosity | Snow |
|---|---|---|---|---|---|---|---|
| 1778129428 | 10° C | 83% | 1013.8 hPa | 0 mm | - | 0 W/m² | - |
| 1778129124 | 10° C | 82% | 1013.7 hPa | 0 mm | - | 0 W/m² | - |
| 1778128821 | 10° C | 82% | 1013.8 hPa | 0 mm | - | 0 W/m² | - |
| 1778128517 | 10.56° C | 81% | 1013.9 hPa | 0 mm | - | 0 W/m² | - |
| 1778128215 | 10.56° C | 81% | 1014.2 hPa | 0 mm | - | 0 W/m² | - |
| 1778127910 | 10.56° C | 82% | 1013.9 hPa | 0 mm | - | 0 W/m² | - |
| 1778127606 | 10° C | 82% | 1014.2 hPa | 0 mm | - | 0 W/m² | - |
| 1778127303 | 10° C | 82% | 1014 hPa | 0 mm | - | 0 W/m² | - |
| 1778127000 | 10° C | 85% | 1014.1 hPa | 0 mm | - | 0 W/m² | - |
| 1778126696 | 9.44° C | 86% | 1013.9 hPa | 0 mm | - | 0 W/m² | - |
| 1778126391 | 10° C | 84% | 1014 hPa | 0 mm | - | 0 W/m² | - |
| 1778126088 | 9.44° C | 84% | 1014.2 hPa | 0 mm | - | 0 W/m² | - |
| 1778125785 | 9.44° C | 87% | 1014.6 hPa | 0 mm | - | 0 W/m² | - |
| 1778125482 | 9.44° C | 84% | 1014.4 hPa | 0 mm | - | 0 W/m² | - |
| 1778125180 | 9.44° C | 86% | 1014.2 hPa | 0 mm | - | 0 W/m² | - |
| 1778124878 | 9.44° C | 87% | 1014.3 hPa | 0 mm | - | 0 W/m² | - |
| 1778124574 | 8.89° C | 90% | 1014.3 hPa | 0 mm | - | 0 W/m² | - |
| 1778124272 | 10° C | 87% | 1014.2 hPa | 0 mm | - | 0 W/m² | - |
| 1778123967 | 10° C | 83% | 1014 hPa | 0 mm | - | 0 W/m² | - |
| 1778123664 | 10.56° C | 83% | 1014.2 hPa | 0 mm | - | 0 W/m² | - |
| 1778123361 | 10.56° C | 80% | 1014.2 hPa | 0 mm | - | 0 W/m² | - |
| 1778123058 | 10.56° C | 80% | 1014 hPa | 0 mm | - | 0 W/m² | - |
| 1778122755 | 10.56° C | 78% | 1014 hPa | 0 mm | - | 0 W/m² | - |
| 1778122453 | 10.56° C | 78% | 1013.9 hPa | 0 mm | - | 0 W/m² | - |
| 1778122150 | 10.56° C | 79% | 1013.9 hPa | 0 mm | - | 0 W/m² | - |
* Rain latest hour (hover to see other rain measurements)
** Current wind speed in m/s (hover to see current wind gust speed)